This is the latest recevied weather packets stored in our database for station/object N9BLE. If no packets are shown the sender has not sent any weather packets the latest 10 day(s).
| Time | Temp. | Humidity | Pressure | Rain* | Wind** | Luminosity | Snow |
|---|---|---|---|---|---|---|---|
| 1777640229 | 6.67° C | 84% | 1020.3 hPa | 0 mm | - | 200 W/m² | - |
| 1777639925 | 6.11° C | 88% | 1020.3 hPa | 0 mm | - | 183 W/m² | - |
| 1777639622 | 5.56° C | 91% | 1020.3 hPa | 0 mm | - | 178 W/m² | - |
| 1777639319 | 5° C | 93% | 1020.4 hPa | 0 mm | - | 64 W/m² | - |
| 1777639015 | 5° C | 94% | 1020.2 hPa | 0 mm | - | 84 W/m² | - |
| 1777638711 | 4.44° C | 95% | 1020.4 hPa | 0 mm | - | 50 W/m² | - |
| 1777638408 | 4.44° C | 95% | 1020.4 hPa | 0 mm | - | 29 W/m² | - |
| 1777638104 | 4.44° C | 95% | 1020.4 hPa | 0 mm | - | 40 W/m² | - |
| 1777637801 | 4.44° C | 96% | 1020.3 hPa | 0 mm | - | 44 W/m² | - |
| 1777637497 | 4.44° C | 96% | 1020.3 hPa | 0 mm | - | 32 W/m² | - |
| 1777637195 | 4.44° C | 96% | 1020.2 hPa | 0 mm | - | 31 W/m² | - |
| 1777636891 | 4.44° C | 96% | 1019.9 hPa | 0 mm | - | 23 W/m² | - |
| 1777636587 | 4.44° C | 96% | 1019.8 hPa | 0 mm | - | 22 W/m² | - |
| 1777636283 | 3.89° C | 96% | 1019.8 hPa | 0 mm | - | 21 W/m² | - |
| 1777635983 | 3.89° C | 96% | 1020 hPa | 0 mm | - | 17 W/m² | - |
| 1777635680 | 3.89° C | 96% | 1019.9 hPa | 0 mm | - | 17 W/m² | - |
| 1777635377 | 3.89° C | 96% | 1019.8 hPa | 0 mm | - | 15 W/m² | - |
| 1777635073 | 3.89° C | 96% | 1019.5 hPa | 0 mm | - | 14 W/m² | - |
| 1777634769 | 3.89° C | 97% | 1019.4 hPa | 0 mm | - | 11 W/m² | - |
| 1777634467 | 3.89° C | 97% | 1019.3 hPa | 0 mm | - | 9 W/m² | - |
| 1777634163 | 3.89° C | 97% | 1019.4 hPa | 0 mm | - | 8 W/m² | - |
| 1777633860 | 3.89° C | 97% | 1019.3 hPa | 0 mm | - | 5 W/m² | - |
| 1777633557 | 3.89° C | 96% | 1019.4 hPa | 0 mm | - | 4 W/m² | - |
| 1777633255 | 3.33° C | 96% | 1019.3 hPa | 0 mm | - | 4 W/m² | - |
| 1777632952 | 3.33° C | 96% | 1019.1 hPa | 0 mm | - | 3 W/m² | - |
* Rain latest hour (hover to see other rain measurements)
** Current wind speed in m/s (hover to see current wind gust speed)